Location: Unspecified
(0.0000°N, 0.0000°E)
Time: 00:35:09
(UTC+00:00)

NNS O-23 - Pass Details

Date: 12 June 2023
Orbit: 1014 x 1297 km, 90.3° (Epoch: 01 October)

Event Time Altitude Azimuth Distance (km) Brightness Sun altitude
Rises 18:22:28 0° 346° (NNW) 3,837 11.7 -5.2°
Reaches altitude 10° 18:25:17 10° 338° (NNW) 2,853 11.2 -5.8°
Maximum altitude 18:31:00 34° 275° (W) 1,621 10.0 -7.1°
Drops below altitude 10° 18:36:37 10° 212° (SSW) 2,796 10.5 -8.4°
Sets 18:39:22 0° 203° (SSW) 3,750 11.1 -9.1°
